Home > Weather > Sultanpur > Past weeks

Flag for India Past Weather in Sultanpur, Uttar Pradesh, India — Yesterday and Last 2 Weeks

Now
82 °F

Scattered clouds.


Feels Like: 96 °F
Forecast: 81 / 97 °F
Wind: 5 mph from East

Location: Lucknow / Amausi

Current Time: Aug 27, 2016 at 8:50:18 AM

Latest Report: Aug 27, 2016 at 7:30 AM


Visibility: 2 mi

Pressure: 29.74 "Hg

Humidity: 100%

Dew Point: 82 °F

Location of SultanpurLocation

Past Weather in Sultanpur — Graph

°F

Sultanpur Temperature Yesterday

Maximum temperature yesterday: 97 °F (at 11:30 AM)
Minimum temperature yesterday: 81 °F (at 9:00 PM)
Average temperature yesterday: 86 °F

High & Low Weather Summary for the Past Weeks

 TemperatureHumidityPressure
High99 °F (Aug 25, 12:00 PM)100% (Aug 12, 7:00 AM)29.74 "Hg (Aug 12, 7:00 AM)
Low77 °F (Aug 17, 12:00 AM)63% (Aug 13, 4:30 PM)29.36 "Hg (Aug 16, 4:00 PM)
Average86 °F89%29.54 "Hg
* Reported Aug 12 7:00 AM — Aug 27 7:20 AM, Sultanpur, Weather by CustomWeather, © 2016

Note: Actual official high and low records may vary slightly from our data, if they occured in-between our weather recording intervals... More about our weather records

Advertising

Sultanpur Weather History for the Previous 24 Hours

Scroll right to see more
 ConditionsComfort  
Time TempWeatherWind HumidityBarometerVisibility
7:20 AM
Sat, Aug 27
81 °FScattered clouds.No wind100%29.74 "Hg2 mi
6:00 AM79 °FPassing clouds.No wind100%29.74 "Hg2 mi
5:30 AM79 °FPassing clouds.No wind100%29.71 "Hg2 mi
5:00 AM79 °FPassing clouds.No wind100%29.71 "Hg2 mi
4:00 AM81 °FPartly cloudy.No wind94%29.71 "Hg2 mi
3:00 AM81 °FPartly cloudy.No wind94%29.71 "Hg2 mi
2:00 AM81 °FPartly cloudy.No windN/A29.71 "Hg2 mi
1:00 AM81 °FPartly cloudy.3 mph100%29.71 "Hg2 mi
12:00 AM81 °FPartly cloudy.No wind100%29.71 "Hg2 mi
11:00 PM
Fri, Aug 26
81 °FPartly cloudy.No wind100%29.71 "Hg2 mi
10:00 PM81 °FPartly cloudy.No wind100%29.71 "Hg2 mi
9:00 PM81 °FPartly cloudy.3 mph100%29.68 "Hg2 mi
8:30 PM82 °FPartly cloudy.6 mph100%29.68 "Hg2 mi
8:00 PM82 °FPartly cloudy.8 mph100%29.65 "Hg2 mi
7:30 PM82 °FPartly cloudy.7 mph100%29.65 "Hg2 mi
7:00 PM82 °FBroken clouds.6 mph94%29.65 "Hg2 mi
6:30 PM82 °FBroken clouds.7 mph94%29.65 "Hg2 mi
6:00 PM84 °FBroken clouds.7 mph94%29.65 "Hg2 mi
5:30 PM84 °FBroken clouds.6 mph94%29.65 "Hg2 mi
5:00 PM86 °FBroken clouds.2 mph89%29.65 "Hg2 mi
4:30 PM86 °FBroken clouds.3 mph89%29.62 "Hg2 mi
4:00 PM86 °FBroken clouds.5 mph89%29.62 "Hg2 mi
3:30 PM88 °FBroken clouds.No wind84%29.65 "Hg2 mi
3:00 PM88 °FBroken clouds.No wind84%29.65 "Hg2 mi
2:30 PM86 °FBroken clouds.3 mph89%29.65 "Hg2 mi
2:00 PM84 °FBroken clouds.3 mph94%29.65 "Hg2 mi
1:30 PM84 °FBroken clouds.No wind94%29.65 "Hg2 mi
1:00 PM82 °FLight rain. Broken clouds.12 mph100%29.68 "Hg2 mi
12:30 PM88 °FBroken clouds.17 mph89%29.71 "Hg2 mi
12:00 PM97 °FBroken clouds.8 mph75%29.68 "Hg2 mi
11:30 AM97 °FBroken clouds.6 mph75%29.68 "Hg2 mi
10:30 AM95 °FBroken clouds.8 mph80%29.71 "Hg2 mi
10:00 AM95 °FBroken clouds.5 mph84%29.74 "Hg2 mi
9:00 AM93 °FHaze.No wind89%29.71 "Hg2 mi
8:30 AM91 °FHaze.No wind94%29.71 "Hg2 mi
8:00 AM90 °FHaze.No wind89%29.68 "Hg2 mi
Weather by CustomWeather, © 2016

See weather overviewHow to use our weather pages